Location: *
(39.4459°N, 89.7813°W)
Time: 14:07:06
(UTC+00:00)

Daily predictions for brighter satellites

Satellite Brightness Start Highest point End
(mag) Time Altitude Azimuth Time Altitude Azimuth Time Altitude Azimuth
Meteor PRIRODA 4.4 12:00:07 10° N 12:03:18 29° WNW 12:06:26 10° SW
GPS 2-04 Rocket1 3.5 12:01:54 20° WSW 12:04:28 45° S 12:08:27 10° ESE
ERS-2 3.0 12:02:27 10° SSW 12:05:38 28° W 12:06:56 22° WNW
Cosmos 540 Rocket 3.6 12:01:13 10° SSW 12:06:17 76° ESE 12:11:25 10° NNE
SJ 16-02 2.0 12:05:09 19° NW 12:07:40 33° W 12:11:35 10° SSW
GEOS 3 Rocket 4.4 12:03:22 10° S 12:08:10 34° WSW 12:11:49 16° WNW
Okean 1-7 Rocket 3.6 12:04:58 10° NNW 12:09:31 70° W 12:13:59 10° S
Cosmos 921 Rocket 3.1 12:05:44 10° SW 12:09:53 47° WNW 12:14:00 10° N
Cosmos 1464 Rocket 4.0 12:03:59 10° SSW 12:09:57 54° W 12:15:58 10° N
Spot 2 3.8 12:09:02 10° NNE 12:13:07 87° WNW 12:17:08 10° SSW
Meteor 1-21 Rocket 4.3 12:07:52 10° N 12:13:35 88° E 12:19:23 10° S
Cosmos 1544 Rocket 3.5 12:09:41 10° SSW 12:13:58 62° W 12:18:15 10° N
Cosmos 1400 Rocket 3.5 12:11:27 10° S 12:15:24 58° E 12:19:27 10° NNE
Cosmos 1461 3.1 12:13:14 10° SW 12:17:51 68° WNW 12:22:36 10° NNE
Cosmos 1898 Rocket 3.4 12:12:50 10° NNW 12:17:59 69° WSW 12:23:06 10° S
MOS 1-B 4.4 12:13:04 10° NNE 12:18:53 90° NW 12:24:39 10° SSW
Cosmos 1570 Rocket 4.2 12:14:27 10° SSW 12:19:40 78° ESE 12:24:54 10° NNE
Cosmos 2084 4.4 12:17:01 13° W 12:20:02 27° NW 12:23:46 10° NNE
Cosmos 1726 3.2 12:18:20 10° SW 12:21:17 22° WNW 12:24:16 10° NNW
Cosmos 1763 Rocket 3.9 12:17:50 10° SW 12:22:37 39° WNW 12:27:30 10° N
ATLAS 5 CENTAUR R/B 1.7 12:21:55 15° NW 12:23:56 69° SW 12:30:08 10° SSE
Cosmos 841 Rocket 3.4 12:19:52 10° SSW 12:24:59 77° WNW 12:30:09 10° NNE
PSLV R/B 4.4 12:26:43 10° N 12:30:19 35° WNW 12:33:58 10° SW
NOSS 0 Rocket 4.0 12:24:49 10° SW 12:30:56 61° WNW 12:37:04 10° NNE
H-2A R/B 4.1 12:29:32 10° NNW 12:32:04 18° WNW 12:34:35 10° WSW
Chandra Rocket (1) 3.9 12:33:24 10° SSW 12:34:27 11° S 12:35:25 10° SSE
Cosmos 2208 Rocket 4.2 12:29:05 10° SSW 12:34:32 86° ESE 12:40:00 10° NNE
PAYLOAD B 4.2 12:30:05 10° N 12:35:37 68° WNW 12:41:09 10° SSW
AQUARIUS 4.1 12:31:49 10° N 12:36:19 77° WNW 12:40:47 10° SSW
Cosmos 1626 Rocket 3.6 12:31:59 10° NNW 12:36:26 68° W 12:40:51 10° S
Cosmos 1340 2.7 12:33:28 10° N 12:37:15 85° E 12:41:00 10° S
Cosmos 1953 3.0 12:35:44 10° SW 12:39:19 31° WNW 12:42:54 10° NNW
SL-16 R/B 3.6 12:35:55 10° S 12:41:14 45° ESE 12:46:35 10° NE
Cosmos 1455 Rocket 4.3 12:38:21 10° WSW 12:41:34 20° WNW 12:44:49 10° NNW
Cosmos 1092 Rocket 4.0 12:37:37 10° N 12:43:46 83° W 12:49:56 10° S
Okean O Rocket 1.5 12:39:58 10° N 12:44:21 75° WNW 12:48:40 10° SSW
Cosmos 2034 Rocket 4.4 12:38:52 10° SSW 12:44:50 42° WNW 12:50:51 10° N
CZ-4B R/B 3.3 12:39:10 10° NNE 12:44:51 80° WNW 12:50:27 10° SSW
FengYun 1-2 T 4.4 12:39:17 10° NNE 12:44:59 89° ESE 12:50:38 10° SSW
CZ-2C R/B 3.5 12:44:10 10° SSW 12:47:05 20° SSE 12:49:52 10° ESE
Cosmos 2278 Rocket 2.3 12:42:13 10° NNW 12:47:52 67° WSW 12:53:27 10° S
Cosmos 2333 Rocket 3.6 12:48:01 10° W 12:51:29 16° NW 12:54:58 10° NNW
DELTA 2 R/B (1) 3.7 23:23:19 10° W 23:28:54 84° S 23:34:28 10° ESE
CZ-4B R/B 2.2 23:28:04 10° NNE 23:31:07 31° E 23:34:07 10° SSE
Lacrosse 5 3.9 23:29:46 10° N 23:31:52 12° NNE 23:33:58 10° NE
Okean-O 4.2 23:29:30 10° E 23:31:52 14° ENE 23:34:15 10° NNE
CZ-4C R/B 4.2 23:29:39 10° N 23:32:37 39° WNW 23:35:34 10° SW
RESURS DK-1 2.6 23:29:18 10° SSW 23:33:25 74° WNW 23:37:34 10° NNE
AQUARIUS 4.2 23:29:24 10° SSE 23:33:52 84° E 23:38:24 10° N
Cosmos 1943 3.6 23:28:40 10° N 23:33:59 39° ENE 23:39:14 10° SE
ERS-2 3.6 23:32:06 10° NE 23:34:45 19° E 23:37:23 10° SE
Cosmos 1536 Rocket 4.1 23:31:02 10° SSW 23:35:21 63° W 23:39:44 10° N
COSMO-SKYMED 1 3.1 23:34:38 10° NNE 23:38:43 38° E 23:42:45 10° SSE
Okean O Rocket 1.6 23:35:01 10° SSE 23:39:27 82° ENE 23:43:55 10° N
Cosmos 2227 4.3 23:41:55 10° SSW 23:47:32 85° WNW 23:53:14 10° NNE
CZ-2D R/B 3.9 23:44:13 10° SE 23:47:41 33° ENE 23:51:10 10° N
CZ-2C R/B 4.4 23:47:38 11° ENE 23:49:20 12° E 23:51:32 10° ESE
SL-14 R/B 3.2 23:46:29 10° S 23:50:20 86° W 23:54:14 10° N
Cosmos 1400 Rocket 4.2 23:47:36 10° NNW 23:51:32 45° W 23:55:24 10° SSW
Cosmos 2279 Rocket 4.2 23:45:29 10° N 23:51:35 51° E 23:57:38 10° SSE
